This is the latest recevied weather packets stored in our database for station/object CALDNA-WX. If no packets are shown the sender has not sent any weather packets the latest 10 day(s).
| Time | Temp. | Humidity | Pressure | Rain* | Wind** | Luminosity | Snow |
|---|---|---|---|---|---|---|---|
| 1777833922 | 14.44° C | 42% | 984.5 hPa | 0 mm | - | - | - |
| 1777833330 | 15° C | 42% | 984.5 hPa | 0 mm | - | - | - |
| 1777832122 | 15° C | 48% | 984.7 hPa | 0 mm | - | - | - |
| 1777831248 | 15° C | 48% | 984.7 hPa | 0 mm | - | - | - |
| 1777830321 | 15° C | 46% | 985.2 hPa | 0 mm | - | - | - |
| 1777829440 | 15° C | 44% | 984.5 hPa | 0 mm | - | - | - |
| 1777827647 | 14.44° C | 44% | 984.5 hPa | 0 mm | - | - | - |
| 1777826722 | 14.44° C | 45% | 985 hPa | 0 mm | - | - | - |
| 1777825838 | 13.33° C | 48% | 984 hPa | 0 mm | - | - | - |
| 1777824921 | 13.33° C | 48% | 984 hPa | 0 mm | - | - | - |
| 1777824054 | 13.33° C | 48% | 984 hPa | 0 mm | - | - | - |
| 1777823122 | 12.22° C | 49% | 985.4 hPa | 0 mm | - | - | - |
| 1777822238 | 12.22° C | 51% | 985.1 hPa | 0 mm | - | - | - |
| 1777821321 | 12.78° C | 51% | 985.1 hPa | 0 mm | - | - | - |
| 1777820450 | 11.67° C | 51% | 985.1 hPa | 0 mm | - | - | - |
| 1777819522 | 11.67° C | 54% | 985.1 hPa | 0 mm | - | - | - |
| 1777818644 | 11.67° C | 55% | 985.1 hPa | 0 mm | - | - | - |
| 1777817722 | 11.11° C | 55% | 985.1 hPa | 0 mm | - | - | - |
| 1777816850 | 11.11° C | 55% | 985.1 hPa | 0 mm | - | - | - |
| 1777815922 | 10.56° C | 67% | 985.4 hPa | 0 mm | - | - | - |
| 1777815038 | 10° C | 67% | 985.4 hPa | 0 mm | - | - | - |
| 1777814122 | 8.89° C | 67% | 985.4 hPa | 0 mm | - | - | - |
| 1777813250 | 8.33° C | 67% | 985.4 hPa | 0 mm | - | - | - |
| 1777812322 | 7.22° C | 66% | 984.7 hPa | 0 mm | - | - | - |
| 1777811443 | 6.67° C | 70% | 985.6 hPa | 0 mm | - | - | - |
* Rain latest hour (hover to see other rain measurements)
** Current wind speed in m/s (hover to see current wind gust speed)